Location: Lancaster
(34.6980°N, 118.1360°W)
Time: 01:20:22
(UTC-08:00)

OTV 5 (USA 277) - Pass Details

Date: 17 November 2017
Orbit: 404 x 417 km, 43.0° (Epoch: 07 September)

Event Time Altitude Azimuth Distance (km) Brightness Sun altitude
Exits shadow 04:25:51 15° 39° (NE) 1,176 ? -25.2°
Drops below altitude 10° 04:26:55 10° 55° (NE) 1,455 ? -25.0°
Sets 04:29:24 0° 74° (ENE) 2,313 ? -24.5°
